| time (UTC) | temp C | wind direction | speed KPH | gust KPH | rain 1hr cm | rain 24hr cm | rain mn cm | humidity % | barometer mb |
| 20260902192643 | 18 | 159 | 4.8 | 11.3 | 0.00 | 0.13 | 0.05 | 75 | 1007.5 |
| 20260902190843 | 18 | 142 | 4.8 | 9.7 | 0.00 | 0.13 | 0.05 | 74 | 1007.7 |
| 20260902185943 | 18 | 174 | 4.8 | 11.3 | 0.00 | 0.15 | 0.05 | 74 | 1007.4 |
| 20260902183243 | 18 | 120 | 4.8 | 12.9 | 0.00 | 0.15 | 0.05 | 75 | 1007.4 |
| 20260902182343 | 19 | 177 | 4.8 | 8.0 | 0.00 | 0.15 | 0.05 | 75 | 1007.5 |
| 20260902181443 | 18 | 84 | 4.8 | 12.9 | 0.00 | 0.15 | 0.05 | 76 | 1007.5 |
| 20260902180543 | 19 | 156 | 3.2 | 6.4 | 0.00 | 0.15 | 0.05 | 76 | 1007.4 |
| 20260902175643 | 19 | 204 | 3.2 | 8.0 | 0.05 | 0.15 | 0.05 | 76 | 1007.5 |
| 20260902174743 | 19 | 288 | 4.8 | 9.7 | 0.05 | 0.15 | 0.05 | 76 | 1007.3 |
| 20260902173843 | 19 | 21 | 4.8 | 9.7 | 0.05 | 0.15 | 0.05 | 76 | 1007.8 |
| 20260902172943 | 19 | 146 | 6.4 | 11.3 | 0.05 | 0.15 | 0.05 | 75 | 1007.7 |
| 20260902171143 | 20 | 171 | 9.7 | 17.7 | 0.05 | 0.15 | 0.05 | 72 | 1007.5 |
| 20260902165343 | 20 | 185 | 8.0 | 14.5 | 0.00 | 0.10 | 0.00 | 70 | 1007.4 |
| 20260902164443 | 20 | 183 | 9.7 | 17.7 | 0.00 | 0.10 | 0.00 | 70 | 1007.6 |
| 20260902163543 | 21 | 160 | 12.9 | 19.3 | 0.00 | 0.10 | 0.00 | 70 | 1007.7 |
| 20260902161743 | 21 | 171 | 9.7 | 17.7 | 0.00 | 0.10 | 0.00 | 72 | 1007.8 |
| 20260902155943 | 20 | 173 | 9.7 | 16.1 | 0.00 | 0.10 | 0.00 | 73 | 1007.8 |
| 20260902155043 | 20 | 184 | 9.7 | 19.3 | 0.00 | 0.10 | 0.00 | 73 | 1007.7 |
| 20260902154143 | 19 | 172 | 9.7 | 17.7 | 0.00 | 0.10 | 0.00 | 72 | 1008.1 |
| 20260902151443 | 19 | 173 | 12.9 | 17.7 | 0.00 | 0.10 | 0.00 | 72 | 1008.3 |
| 20260902145643 | 19 | 168 | 12.9 | 20.9 | 0.00 | 0.10 | 0.00 | 71 | 1008.3 |
| 20260902142944 | 18 | 172 | 14.5 | 22.5 | 0.00 | 0.10 | 0.00 | 71 | 1008.5 |
| 20260902142043 | 18 | 157 | 14.5 | 20.9 | 0.00 | 0.10 | 0.00 | 71 | 1008.8 |
| 20260902141143 | 18 | 163 | 14.5 | 24.1 | 0.00 | 0.10 | 0.00 | 71 | 1008.8 |
| 20260902140243 | 18 | 173 | 14.5 | 24.1 | 0.00 | 0.10 | 0.00 | 71 | 1008.6 |
| 20260902135343 | 18 | 170 | 16.1 | 30.6 | 0.00 | 0.10 | 0.00 | 71 | 1008.8 |
| 20260902134443 | 18 | 176 | 12.9 | 22.5 | 0.00 | 0.10 | 0.00 | 71 | 1009.2 |
| 20260902132643 | 18 | 171 | 17.7 | 30.6 | 0.00 | 0.10 | 0.00 | 70 | 1009.1 |
| 20260902131743 | 18 | 170 | 19.3 | 30.6 | 0.00 | 0.10 | 0.00 | 70 | 1009.1 |
| 20260902130843 | 18 | 175 | 20.9 | 27.4 | 0.00 | 0.10 | 0.00 | 70 | 1009.3 |
| 20260902125943 | 18 | 165 | 20.9 | 29.0 | 0.00 | 0.10 | 0.00 | 70 | 1009.3 |
| 20260902125043 | 18 | 184 | 19.3 | 27.4 | 0.00 | 0.10 | 0.00 | 70 | 1009.2 |
| 20260902124143 | 19 | 169 | 17.7 | 27.4 | 0.00 | 0.10 | 0.00 | 70 | 1009.1 |
| 20260902123243 | 18 | 168 | 19.3 | 30.6 | 0.00 | 0.10 | 0.00 | 70 | 1009.3 |
| 20260902122343 | 18 | 178 | 22.5 | 33.8 | 0.00 | 0.10 | 0.00 | 69 | 1009.5 |
| 20260902121443 | 18 | 166 | 24.1 | 33.8 | 0.00 | 0.10 | 0.00 | 69 | 1009.5 |
| 20260902120543 | 18 | 161 | 24.1 | 33.8 | 0.00 | 0.10 | 0.00 | 71 | 1009.7 |
| 20260902115643 | 18 | 170 | 20.9 | 33.8 | 0.00 | 0.10 | 0.00 | 72 | 1009.8 |
| 20260902114743 | 18 | 167 | 17.7 | 29.0 | 0.00 | 0.10 | 0.00 | 73 | 1010.2 |
| 20260902112943 | 17 | 165 | 16.1 | 22.5 | 0.00 | 0.10 | 0.00 | 75 | 1010.2 |
| 20260902111144 | 17 | 158 | 14.5 | 22.5 | 0.00 | 0.13 | 0.00 | 80 | 1010.6 |
| 20260902110243 | 16 | 176 | 14.5 | 19.3 | 0.00 | 0.13 | 0.00 | 81 | 1010.5 |
| 20260902104443 | 16 | 168 | 19.3 | 27.4 | 0.00 | 0.13 | 0.00 | 83 | 1010.8 |
| 20260902103543 | 16 | 163 | 19.3 | 27.4 | 0.00 | 0.13 | 0.00 | 84 | 1010.8 |
| 20260902101743 | 16 | 172 | 20.9 | 30.6 | 0.00 | 0.13 | 0.00 | 85 | 1011.0 |
| 20260902100843 | 16 | 178 | 20.9 | 29.0 | 0.00 | 0.13 | 0.00 | 85 | 1011.1 |
| 20260902095943 | 16 | 167 | 22.5 | 33.8 | 0.00 | 0.13 | 0.00 | 86 | 1011.3 |
| 20260902095043 | 15 | 169 | 19.3 | 27.4 | 0.00 | 0.13 | 0.00 | 86 | 1011.3 |
| 20260902094144 | 15 | 167 | 19.3 | 27.4 | 0.00 | 0.13 | 0.00 | 86 | 1011.3 |
| 20260902093243 | 15 | 179 | 19.3 | 29.0 | 0.00 | 0.13 | 0.00 | 87 | 1011.4 |
| 20260902092343 | 15 | 179 | 17.7 | 27.4 | 0.00 | 0.13 | 0.00 | 88 | 1011.6 |
| 20260902091443 | 15 | 184 | 22.5 | 30.6 | 0.00 | 0.13 | 0.00 | 89 | 1011.7 |
| 20260902090543 | 16 | 176 | 20.9 | 27.4 | 0.00 | 0.13 | 0.00 | 90 | 1012.0 |
| 20260902085643 | 15 | 174 | 20.9 | 30.6 | 0.00 | 0.13 | 0.00 | 90 | 1011.7 |
| 20260902084743 | 15 | 175 | 14.5 | 27.4 | 0.00 | 0.13 | 0.00 | 91 | 1012.0 |
| 20260902083843 | 15 | 175 | 14.5 | 24.1 | 0.00 | 0.13 | 0.00 | 91 | 1011.9 |
| 20260902082943 | 15 | 172 | 16.1 | 24.1 | 0.00 | 0.13 | 0.00 | 92 | 1012.1 |
| 20260902081143 | 15 | 174 | 19.3 | 27.4 | 0.00 | 0.13 | 0.00 | 92 | 1012.1 |
| 20260902080243 | 15 | 176 | 14.5 | 24.1 | 0.00 | 0.13 | 0.00 | 92 | 1012.0 |
| 20260902075343 | 15 | 176 | 14.5 | 20.9 | 0.00 | 0.15 | 0.00 | 92 | 1012.2 |
| 20260902074443 | 15 | 162 | 11.3 | 16.1 | 0.00 | 0.15 | 0.00 | 92 | 1012.5 |
| 20260902072643 | 15 | 171 | 8.0 | 12.9 | 0.00 | 0.18 | 0.00 | 92 | 1012.5 |
| 20260902071743 | 14 | 183 | 11.3 | 12.9 | 0.00 | 0.18 | 0.00 | 92 | 1012.7 |
| 20260902070843 | 14 | 174 | 9.7 | 12.9 | 0.00 | 0.18 | 0.00 | 92 | 1012.7 |
| 20260902065943 | 14 | 177 | 8.0 | 12.9 | 0.00 | 0.18 | 0.00 | 92 | 1012.8 |
| 20260902065043 | 14 | 173 | 9.7 | 14.5 | 0.00 | 0.18 | 0.00 | 92 | 1012.8 |
| 20260902064143 | 14 | 178 | 14.5 | 20.9 | 0.00 | 0.18 | 0.00 | 92 | 1012.7 |
| 20260902063243 | 14 | 174 | 16.1 | 22.5 | 0.00 | 0.18 | 0.00 | 92 | 1012.7 |
| 20260902062343 | 14 | 177 | 12.9 | 19.3 | 0.00 | 0.18 | 0.00 | 92 | 1012.6 |
| 20260902061443 | 14 | 169 | 11.3 | 17.7 | 0.00 | 0.18 | 0.00 | 92 | 1013.0 |
| 20260901221751 | 15 | 332 | 1.6 | 4.8 | 0.00 | 0.00 | 0.13 | 82 | 1015.4 |
| 20260901220851 | 15 | 308 | 1.6 | 3.2 | 0.00 | 0.13 | 0.13 | 82 | 1015.6 |
| 20260901215951 | 15 | 254 | 0.0 | 3.2 | 0.00 | 0.13 | 0.13 | 82 | 1015.5 |
| 20260901215051 | 15 | 229 | 0.0 | 3.2 | 0.00 | 0.13 | 0.13 | 82 | 1015.7 |
| 20260901213251 | 15 | 225 | 0.0 | 3.2 | 0.00 | 0.13 | 0.13 | 81 | 1015.4 |
| 20260901212351 | 15 | 262 | 0.0 | 3.2 | 0.00 | 0.13 | 0.13 | 81 | 1015.7 |
| 20260901211451 | 15 | 348 | 1.6 | 3.2 | 0.00 | 0.13 | 0.13 | 80 | 1015.8 |
| 20260901205651 | 15 | 332 | 3.2 | 4.8 | 0.00 | 0.13 | 0.13 | 80 | 1015.3 |
| 20260901204751 | 15 | 344 | 3.2 | 6.4 | 0.00 | 0.15 | 0.13 | 79 | 1015.5 |
| 20260901203851 | 15 | 346 | 4.8 | 8.0 | 0.00 | 0.15 | 0.13 | 78 | 1015.4 |
| 20260901202951 | 15 | 352 | 3.2 | 6.4 | 0.00 | 0.15 | 0.13 | 77 | 1015.4 |
| 20260901202052 | 15 | 335 | 3.2 | 8.0 | 0.00 | 0.15 | 0.13 | 77 | 1015.5 |
| 20260901201151 | 15 | 266 | 1.6 | 4.8 | 0.00 | 0.15 | 0.13 | 77 | 1015.2 |
| 20260901200251 | 15 | 225 | 1.6 | 4.8 | 0.00 | 0.15 | 0.13 | 76 | 1015.3 |
| 20260901195351 | 16 | 263 | 1.6 | 6.4 | 0.03 | 0.15 | 0.13 | 76 | 1015.3 |
| 20260901194451 | 16 | 296 | 3.2 | 8.0 | 0.03 | 0.15 | 0.13 | 75 | 1015.2 |